Weather History for Aqaba, Jordan

Change the Weather History Date:

Friday, September 13, 2013

  Actual Average (LLET) Record (LLET)
Temperature  
Mean Temperature 91 °F -  
Max Temperature 104 °F 98 °F 105 °F (2013)
Min Temperature 78 °F 77 °F 75 °F (2001)
Cooling Degree Days 26    
Growing Degree Days 41 (Base 50)    
Moisture  
Dew Point 69 °F    
Average Humidity 47    
Maximum Humidity 69    
Minimum Humidity 27    
Precipitation  
Precipitation 0.00 in - - ()
Sea Level Pressure  
Sea Level Pressure 29.77 in    
Wind  
Wind Speed 9 mph ()    
Max Wind Speed 15 mph    
Max Gust Speed -    
Visibility 6.0 miles    
Events      
Averages and records for this station are not official NWS values.
T = Trace of Precipitation, MM = Missing Value Source: Averaged Metar Reports

Daily Weather History Graph

Daily Weather History Graph

Search for Another Location

Airport:

Trip Planner

Search our weather history database for the weather conditions in past years. The results will help you decide how hot, cold, wet, or windy it might be!

Date:

Astronomy

Sep. 13, 2013 Rise Set
Actual Time 6:23 AM EEST 6:47 PM EEST
Civil Twilight 5:59 AM EEST 7:11 PM EEST
Nautical Twilight 5:31 AM EEST 7:39 PM EEST
Astronomical Twilight 5:03 AM EEST 8:07 PM EEST
Moon 1:59 PM EEST (9/13) No Moon Set
Length of Visible Light 13h 11m
Length of Day
12h 24m
First Quarter, 58% of the Moon is Illuminated
Sep 13
First Quarter
Sep 19
Full
Sep 27
Last Quarter
Oct 5
New
Oct 12
First Quarter

Hourly Weather History & Observations

Time (EEST) Temp. Heat Index Dew Point Humidity Pressure Visibility Wind Dir Wind Speed Gust Speed Precip Events Conditions
12:00 AM 86 °F - 67 °F 44% 29.75 in 6 mi North 8.1 mph - -  
12:00 AM 86.0 °F 89.4 °F 68.0 °F 55% 29.74 in - North 8.1 mph - N/A   Clear
6:00 AM 79 °F - 67 °F 59% 29.75 in 6 mi North 8.1 mph - -  
6:00 AM 78.8 °F - 68.0 °F 69% 29.74 in - North 8.1 mph - N/A   Clear
9:00 AM 82.4 °F 86.3 °F 69.8 °F 66% 29.80 in - North 8.1 mph - N/A   Clear
10:00 AM 84.2 °F 88.4 °F 69.8 °F 62% 29.80 in - North 11.5 mph - N/A   Clear
11:00 AM 86.0 °F 90.4 °F 69.8 °F 58% 29.80 in - North 11.5 mph - N/A   Clear
12:00 PM 90 °F - 71 °F 45% 29.81 in 6 mi North 10.4 mph - -  
12:00 PM 89.6 °F 98.2 °F 73.4 °F 59% 29.80 in - North 10.4 mph - N/A   Clear
1:00 PM 91.4 °F 100.1 °F 73.4 °F 55% 29.80 in - North 10.4 mph - N/A   Clear
2:00 PM 93.2 °F 102.4 °F 73.4 °F 52% 29.80 in - North 10.4 mph - N/A   Clear
3:00 PM 102.2 °F 110.0 °F 69.8 °F 35% 29.74 in - North 9.2 mph - N/A   Clear
4:00 PM 102.2 °F 110.0 °F 69.8 °F 35% 29.74 in - North 9.2 mph - N/A   Clear
6:00 PM 102 °F - 70 °F 27% 29.78 in 6 mi North 15.0 mph - -  
6:00 PM 102.2 °F 110.0 °F 69.8 °F 35% 29.74 in - North 15.0 mph - N/A   Clear
7:00 PM 100.4 °F 107.8 °F 69.8 °F 37% 29.74 in - North 15.0 mph - N/A   Clear
8:00 PM 96.8 °F 103.1 °F 69.8 °F 41% 29.74 in - North 15.0 mph - N/A   Clear
9:00 PM 97 °F - 67 °F 28% 29.78 in 6 mi North 8.1 mph - -   Clear
9:00 PM 96.8 °F 100.7 °F 66.2 °F 37% 29.77 in - North 8.1 mph - N/A   Clear
10:00 PM 95.0 °F 98.5 °F 66.2 °F 39% 29.77 in - North 8.1 mph - N/A   Clear
11:00 PM 93.2 °F 96.2 °F 66.2 °F 41% 29.77 in - North 5.8 mph - N/A   Clear